📊 Raw Sensor Data
Showing records 50551 to 50575 of 85,136 total
| ID | Distance (ft) | Battery V | Battery A | Int Temp (°F) | Int Humid (%) | Ext Temp (°F) | Solar V | RSSI | SNR | Time Stamp |
|---|---|---|---|---|---|---|---|---|---|---|
| 34598 | 15.7 | 4.00 | 5 | 74 | 35 | 66 | 5.10 | -76 | 8 | 03/10/2025 01:30 PM |
| 34597 | 15.7 | 4.00 | 6 | 71 | 36 | 63 | 5.10 | -75 | 8 | 03/10/2025 01:15 PM |
| 34596 | 15.7 | 4.00 | 0 | 71 | 36 | 63 | 5.10 | -75 | 7 | 03/10/2025 01:00 PM |
| 34595 | 15.7 | 4.00 | 5 | 69 | 36 | 64 | 5.10 | -75 | 7 | 03/10/2025 12:45 PM |
| 34594 | 15.7 | 4.00 | 5 | 68 | 36 | 62 | 5.10 | -75 | 8 | 03/10/2025 12:30 PM |
| 34593 | 15.6 | 3.99 | 0 | 66 | 36 | 60 | 5.10 | -75 | 8 | 03/10/2025 12:15 PM |
| 34592 | 15.7 | 4.00 | 5 | 66 | 36 | 61 | 5.10 | -76 | 8 | 03/10/2025 12:00 PM |
| 34591 | 15.7 | 3.99 | 0 | 65 | 35 | 60 | 5.10 | -75 | 8 | 03/10/2025 11:45 AM |
| 34590 | 15.6 | 3.99 | 0 | 63 | 36 | 59 | 5.10 | -76 | 7 | 03/10/2025 11:30 AM |
| 34589 | 15.6 | 3.99 | 5 | 61 | 36 | 57 | 5.10 | -75 | 7 | 03/10/2025 11:15 AM |
| 34588 | 15.6 | 4.04 | 5 | 61 | 35 | 57 | 5.10 | -76 | 7 | 03/10/2025 11:00 AM |
| 34587 | 15.7 | 3.99 | 0 | 59 | 35 | 56 | 5.10 | -77 | 7 | 03/10/2025 10:45 AM |
| 34586 | 15.6 | 3.99 | 0 | 58 | 35 | 57 | 5.10 | -75 | 8 | 03/10/2025 10:30 AM |
| 34585 | 15.7 | 4.12 | 6 | 56 | 34 | 55 | 5.10 | -74 | 8 | 03/10/2025 10:15 AM |
| 34584 | 15.6 | 3.99 | 6 | 53 | 34 | 55 | 5.10 | -76 | 8 | 03/10/2025 10:00 AM |
| 34583 | 15.6 | 3.99 | 0 | 51 | 35 | 53 | 5.10 | -74 | 8 | 03/10/2025 09:45 AM |
| 34582 | 15.6 | 4.12 | 0 | 48 | 35 | 51 | 5.10 | -74 | 8 | 03/10/2025 09:30 AM |
| 34581 | 15.5 | 3.99 | 6 | 45 | 35 | 49 | 5.10 | -76 | 8 | 03/10/2025 09:15 AM |
| 34580 | 15.5 | 4.02 | 5 | 43 | 36 | 47 | 5.10 | -75 | 8 | 03/10/2025 09:00 AM |
| 34579 | 15.4 | 4.00 | 5 | 41 | 36 | 45 | 5.10 | -75 | 8 | 03/10/2025 08:45 AM |
| 34578 | 15.4 | 4.07 | 46 | 40 | 36 | 42 | 4.50 | -75 | 8 | 03/10/2025 08:30 AM |
| 34577 | 15.4 | 4.03 | 24 | 38 | 37 | 41 | 4.50 | -75 | 8 | 03/10/2025 08:15 AM |
| 34576 | 15.4 | 4.01 | 7 | 37 | 37 | 40 | 4.50 | -75 | 8 | 03/10/2025 08:00 AM |
| 34575 | 15.5 | 3.97 | 13 | 37 | 38 | 41 | 4.50 | -75 | 8 | 03/10/2025 07:45 AM |
| 34574 | 15.4 | 3.91 | -10 | 36 | 38 | 39 | 4.50 | -75 | 8 | 03/10/2025 07:30 AM |